Regional Weather Roundup
Issued by NWS

Home | Current Version | Previous Version | Graphics & Text | Print | Product List | Glossary On
Versions: 1 2 3 4 5 6 7 8 9 10 11 12 13 14 15 16 17 18 19 20 21 22 23 24 25 26 27 28 29 30 31 32 33 34 35 36 37 38 39 40 41 42 43 44 45 46 47 48 49 50
000
ASUS43 KOAX 300302
RWRNE

WEATHER ROUNDUP FOR NEBRASKA
NATIONAL WEATHER SERVICE OMAHA NE
1000 PM CDT FRI APR 29 2016

NOTES: SATELLITE DATA IS BEING USED TO AUGMENT CLOUD COVER ABOVE
       12000 FEET.
       "FAIR" INDICATES FEW OR NO CLOUDS BELOW 12,000 FEET WITH NO
       SIGNIFICANT WEATHER AND/OR OBSTRUCTIONS TO VISIBILITY.

  * THESE STATIONS DO NOT REPORT WEATHER SUCH AS RAIN...SNOW OR FOG.

NEZ001>004-019>022-054>056-300400-
NEBRASKA PANHANDLE

CITY           SKY/WX    TMP DP  RH WIND       PRES   REMARKS
SCOTTSBLUFF    LGT SNOW  33  31  92 NW5       29.95S FOG     WCI  29
ALLIANCE       LGT SNOW  32  32 100 NE9       29.93S VSB 1   WCI  24
CHADRON        CLOUDY    38  36  92 NE13      29.99R FOG     WCI  30
KIMBALL        LGT SNOW  32  32 100 N7        29.91S WCI  26
SIDNEY         LGT SNOW  33  31  92 N12       29.91S FOG     WCI  24
$$

NEZ057>060-069>072-079>082-300400-
SOUTHWEST NEBRASKA

CITY           SKY/WX    TMP DP  RH WIND       PRES   REMARKS
NORTH PLATTE   RAIN      39  37  92 NE9       29.90S FOG     WCI  33
IMPERIAL       LGT SNOW  33  32  96 NE9       29.90R VSB 1   WCI  25
LEXINGTON      RAIN      41  39  91 NE21G30   29.87R
MCCOOK         RAIN      38  35  89 NE10      29.89F FOG     WCI  31
$$

NEZ005>010-023>029-035>040-094-300400-
NORTH CENTRAL NEBRASKA

CITY           SKY/WX    TMP DP  RH WIND       PRES   REMARKS
VALENTINE      CLOUDY    39  37  92 E15       30.00S WCI  31
AINSWORTH      CLOUDY    39  38  97 NE16      29.99S FOG     WCI  30
BROKEN BOW     LGT RAIN  40  38  93 NE28G36   29.88F WCI  29
ORD            CLOUDY    41  40  96 NE15      29.93S FOG
$$

NEZ041-046>049-061>064-073>077-083>087-300400-
SOUTH CENTRAL NEBRASKA

CITY           SKY/WX    TMP DP  RH WIND       PRES   REMARKS
GRAND ISLAND   CLOUDY    43  41  93 NE20G28   29.90R
AURORA         CLOUDY    44  43  94 NE23G32   29.89R
HASTINGS       CLOUDY    43  41  93 NE18G28   29.85S FOG
KEARNEY *      CLOUDY    43  37  81 NE25      29.87S
YORK           CLOUDY    45  43  93 E17G24    29.89R
$$

NEZ011>018-030>034-042>045-300400-
NORTHEAST NEBRASKA

CITY           SKY/WX    TMP DP  RH WIND       PRES   REMARKS
NORFOLK        CLOUDY    44  39  82 NE13      29.97R
ALBION         CLOUDY    43  40  89 NE12G17   29.96R
BLAIR          CLOUDY    47  42  84 NE20G26   29.93S
COLUMBUS *     CLOUDY    45  36  70 NE20G28   29.94S
FREMONT        CLOUDY    46  41  84 NE10G22   29.96R
TEKAMAH        CLOUDY    47  41  80 NE14      29.98R
$$

NEZ050>053-065>068-078-088>093-300400-
SOUTHEAST NEBRASKA

CITY           SKY/WX    TMP DP  RH WIND       PRES   REMARKS
LINCOLN        CLOUDY    48  42  80 E21G30    29.90F
OMAHA EPPLEY   CLOUDY    48  41  76 E13G21    29.95F
FALLS CITY     CLOUDY    50  46  86 E15G24    29.86R
$$

NEZ044-045-051>053-067-300400-
OMAHA AREA

CITY           SKY/WX    TMP DP  RH WIND       PRES   REMARKS
OMAHA EPPLEY   CLOUDY    48  41  76 E13G21    29.95F
BLAIR          CLOUDY    47  42  84 NE20G26   29.93S
FREMONT        CLOUDY    46  41  84 NE10G22   29.96R
OFFUTT AFB     CLOUDY    48  43  84 NE13G22   29.92F
$$




USA.gov is the U.S. government's official web portal to all federal, state and local government web resources and services.